Regional Weather Roundup
Issued by NWS

Home | Current Version | Previous Version | Text Only | Print | Product List | Glossary Off
Versions: 1 2 3 4 5 6 7 8 9 10 11 12 13 14 15 16 17 18 19 20 21 22 23 24 25 26 27 28 29 30 31 32 33 34 35 36 37 38 39 40 41 42 43 44 45 46 47 48 49 50

000
ASUS43 KLSX 270210
RWRMO

WEATHER SUMMARY FOR MISSOURI
NATIONAL WEATHER SERVICE SPRINGFIELD MO
900 PM CDT SUN MAR 26 2017

NOTE: "FAIR" INDICATES FEW OR NO CLOUDS BELOW 12,000 FEET WITH NO
       SIGNIFICANT WEATHER AND/OR OBSTRUCTIONS TO VISIBILITY.
       CURRENT SKY AND/OR WEATHER CONDITIONS ARE NOT AVAILABLE FOR
       CHILLICOTHE AND FARMINGTON.

MOZ001>031-035>038-043-044-053-054-270300-
...NORTHERN AND WESTERN MISSOURI...

CITY           SKY/WX    TMP DP  RH WIND       PRES   REMARKS
KANSAS CTY INT CLOUDY    50  45  83 NW5       29.96R
KANSAS C DTWN  CLOUDY    52  45  77 N8        29.94R
LEE`S SUMMIT   CLOUDY    51  45  79 N12       29.93S
ST JOSEPH      CLOUDY    48  44  86 N7        29.96S
CHILLICOTHE      N/A     50  45  83 CALM      29.97R
KIRKSVILLE     CLOUDY    48  43  82 CALM      29.95R

$$
MOZ066>068-077>081-088>096-101>105-270300-
...SOUTHWEST MISSOURI...

CITY           SKY/WX    TMP DP  RH WIND       PRES   REMARKS
SPRINGFIELD    MOCLDY    63  49  60 E8        29.84S
JOPLIN         RAIN      59  54  83 E13       29.84F
BRANSON        CLOUDY    63  46  55 SE8       29.86S

$$
MOZ032>034-039>042-045>050-055>058-069>072-270300-
...CENTRAL MISSOURI...

CITY           SKY/WX    TMP DP  RH WIND       PRES   REMARKS
COLUMBIA       CLOUDY    52  48  86 N5        29.92S
JEFFERSON CITY CLOUDY    54  48  80 SW3       29.92S
ROLLA          CLOUDY    55  49  80 E7        29.90F
SEDALIA        PTCLDY    52  49  89 NE8       29.91F
WHITEMAN AFB   PTCLDY    48  48 100 N7        29.91R
WARRENSBURG    CLOUDY    50  45  81 CALM      29.93R
OSAGE BEACH    PTCLDY   N/A N/A N/A NE8       29.89F

$$
MOZ051-052-059>065-270300-
...EAST CENTRAL MISSOURI...

CITY           SKY/WX    TMP DP  RH WIND       PRES   REMARKS
ST LOUIS INTL  MOCLDY    57  49  74 NE5       29.95R
SPIRIT OF STL  CLOUDY    54  51  90 E3        29.94R
ST CHARLES     CLOUDY    51  50  96 E5        29.94R

$$
MOZ072>076-082>087-097>100-106>115-270300-
...SOUTH CENTRAL AND SOUTHEAST MISSOURI...

CITY           SKY/WX    TMP DP  RH WIND       PRES   REMARKS
CAPE GIRARDEAU PTCLDY    54  49  83 CALM      29.97R
FARMINGTON     PTCLDY    57  48  72 SE3       29.95S
POPLAR BLUFF   PTCLDY    58  54  86 E5        29.94S
WEST PLAINS    CLOUDY    60  48  64 E6        29.91R

$$



USA.gov is the U.S. government's official web portal to all federal, state and local government web resources and services.